Regional Weather Roundup
Issued by NWS Boston, MA

Home | Current Version | Previous Version | Text Only | Print | Product List | Glossary On
Versions: 1 2 3 4 5 6 7 8 9 10 11 12 13 14 15 16 17 18 19 20 21 22 23 24 25 26 27 28 29 30 31 32 33 34 35 36 37 38 39 40 41 42 43 44 45 46 47 48 49 50
000
ASUS41 KBOX 241410
RWRBOX

REGIONAL WEATHER ROUNDUP
NATIONAL WEATHER SERVICE TAUNTON MA
1000 AM EDT WED AUG 24 2016

NOTE:  "FAIR" INDICATES FEW OR NO CLOUDS BELOW 12,000 FEET WITH NO
SIGNIFICANT WEATHER AND/OR OBSTRUCTIONS TO VISIBILITY.

MAZALL-241500-
EASTERN MASSACHUSETTS

CITY           SKY/WX    TMP DP  RH WIND       PRES   REMARKS
BOSTON         MOSUNNY   78  58  49 SW7       30.24F
BEVERLY        SUNNY     77  62  59 W5        30.25R
LAWRENCE       SUNNY     76  60  57 SW5       30.25F
BEDFORD        SUNNY     74  58  57 CALM      30.23F
BLUE HILL        N/A     75  57  53 W6        30.26F
NORWOOD        SUNNY     78  59  51 SW5       30.25F
MARSHFIELD     SUNNY     79  61  53 VRB5      30.25S
PLYMOUTH       SUNNY     78  59  51 W7        30.26S
TAUNTON        SUNNY     79  60  52 SW7       30.25S
NEW BEDFORD    SUNNY     81  60  48 W9        30.25S
$$

MAZALL-241500-
CAPE COD AND THE ISLANDS

CITY           SKY/WX    TMP DP  RH WIND       PRES   REMARKS
FALMOUTH       SUNNY     77  64  65 SW7       30.27R
HYANNIS        SUNNY     79  62  56 SW8       30.25S
CHATHAM        SUNNY     78  66  66 SW10      30.27S
PROVINCETOWN   SUNNY     73  63  70 W7        30.27R
NANTUCKET      SUNNY     74  65  73 SW14      30.27S
MARTHAS VNYRD  SUNNY     77  64  64 W9        30.27S
$$

MAZALL-241500-
CENTRAL AND WESTERN MASSACHUSETTS

CITY           SKY/WX    TMP DP  RH WIND       PRES   REMARKS
WORCESTER      SUNNY     71  57  61 W10       30.28F
FITCHBURG      SUNNY     79  59  50 NW7       30.26F
ORANGE         SUNNY     70  60  70 VRB5      30.27F
SPRINGFIELD    SUNNY     71  59  65 VRB1      30.27F
WESTFIELD      SUNNY     72  60  66 CALM      30.28S
NORTH ADAMS    SUNNY     67  58  72 CALM      30.29F
PITTSFIELD     SUNNY     68  60  75 SW5       30.30S
$$

RIZALL-241500-
RHODE ISLAND

CITY           SKY/WX    TMP DP  RH WIND       PRES   REMARKS
PROVIDENCE     MOSUNNY   79  60  52 W6        30.27S
NEWPORT        SUNNY     77  63  61 W3        30.27S
BLOCK ISLAND   SUNNY     75  66  73 W10       30.28S
SMITHFIELD     SUNNY     76  62  62 VRB6      30.28S
WESTERLY       SUNNY     78  60  53 VRB3      30.28S
$$

CTZALL-241500-
CONNECTICUT

CITY           SKY/WX    TMP DP  RH WIND       PRES   REMARKS
BRADLEY INTL   MOSUNNY   73  59  61 CALM      30.29R
HARTFORD       SUNNY     77  62  59 NE3       30.28R
BRIDGEPORT     SUNNY     78  62  57 VRB3      30.28S
DANBURY        SUNNY     73  61  65 SW5       30.30S
GROTON         SUNNY     78  64  61 VRB6      30.27S
NEW HAVEN      MOSUNNY   74  62  66 CALM      30.28S
CHESTER        FAIR      77  59  53 W6        30.29R
MERIDEN        SUNNY     77  60  55 VRB3      30.28S
WILLIMANTIC    SUNNY     73  63  70 CALM      30.29S
OXFORD         SUNNY     73  59  60 NW6       30.32S
$$

MEZ002-015-021-024-NHZ003-005-008-011-012-014-VTZ005-008-241500-
NORTHERN NEW ENGLAND

CITY           SKY/WX    TMP DP  RH WIND       PRES   REMARKS
PORTLAND ME    MOSUNNY   79  59  50 W6        30.21S
BANGOR ME      MOSUNNY   75  59  57 SW7       30.19R
CONCORD NH     SUNNY     74  57  55 CALM      30.24F
MANCHESTER NH  MOSUNNY   75  57  53 W5        30.23F
NASHUA NH      SUNNY     76  61  59 CALM      30.24F
PORTSMOUTH NH  MOSUNNY   75  59  57 W7        30.21F
JAFFREY NH     SUNNY     72  58  61 S6        30.28F
KEENE NH       SUNNY     68  60  75 CALM      30.27F
BURLINGTON VT  MOSUNNY   73  57  57 SW13      30.22F
MT. WASHINGTON MOSUNNY   52  39  62 W30         N/A
$$

NYZ052-076-241500-
EASTERN NEW YORK

CITY           SKY/WX    TMP DP  RH WIND       PRES   REMARKS
ALBANY         MOSUNNY   70  60  70 VRB6      30.28F
NEW YORK CITY  MOSUNNY   80  60  50 VRB5      30.27F
$$

ANZALL-241500-
MARINE OBSERVATIONS

STATION/POSITION TIME  TEMP    WIND        PRES    VSBY  WAVE
                       AIR SEA DIR/SP/G                  HT/PER
                 (UTC) (F)     (DEG/KT/KT) (MB)    (MI)  (FT/S)
BOSTON BUOY      1350   67 67  250/  6/  6 1024.0F         1/ 8
BUZZARDS BAY     1400   70     250/ 11/ 11 1025.3S
NANTUCKET SOUND  1350   73 72  240/ 12/ 14 1024.5S         1/ 3
MASS BAY-STELLWA 1304   67 65  250/  8/  8 1024.1R  1 7/8  1/ 3
ISLE OF SHOALS   1400   68     240/  8/  9 1023.1F
S OF BLOCK IS    1325      73                N/A           2/ 4
$$

......................KEY.........................
  SKY/WX - SKY CONDITION/PRESENT WEATHER
  TMP    - TEMPERATURE IN FAHRENHEIT
  DWPT   - DEWPOINT IN FAHRENHEIT
  RH     - RELATIVE HUMIDITY IN PERCENT
  WIND   - DIRECTION AND SPEED IN MPH
  PRES   - MEAN SEA LEVEL PRESSURE IN INCHES OF HG
  WCI    - WIND CHILL INDEX
  VSB    - VISIBILITY IN MILES
  HX     - HEAT INDEX
  TC     - TEMPERATURE IN CELSIUS
  VRB    - VARIABLE WIND DIRECTION
  N/A    - NOT AVAILABLE



USA.gov is the U.S. government's official web portal to all federal, state and local government web resources and services.